Location: Ellerstadt
(49.4644°N, 8.2615°E)
Time: 20:53:59
(UTC+00:00)

Vanguard 1 - Pass Details

Date: 15 June 2021
Orbit: 651 x 3831 km, 34.2° (Epoch: 29 July)

Event Time Altitude Azimuth Distance (km) Brightness Sun altitude
Rises 00:53:20 0° 259° (WSW) 7,246 14.2 -14.8°
Reaches altitude 10° 00:59:16 10° 253° (WSW) 5,767 13.6 -14.4°
Maximum altitude 01:12:52 37° 195° (SSW) 2,782 11.8 -13.5°
Drops below altitude 10° 01:20:54 10° 131° (SE) 3,414 12.7 -13.0°
Sets 01:23:27 0° 122° (ESE) 4,077 13.2 -12.8°
